Wind_Speed
32 32 32 31 31 32 32 32 32 32 33 34 34 33 33 34 35 35 35 36 36 37 38 39 40 41 42 42 42 42 42 42 42 42 42 41 40 40 41 40 39 39 39 39
32 32 32 31 31 31 31 32 32 32 33 34 34 33 32 33 34 35 35 36 36 36 37 38 40 41 42 42 42 41 42 42 42 43 43 42 42 42 41 41 40 39 39 38
32 31 31 31 31 31 31 31 31 32 32 33 34 33 31 32 33 34 35 36 36 36 36 38 39 40 41 42 42 41 42 42 42 43 43 43 43 43 41 41 40 40 39 38
31 30 30 31 31 31 31 31 31 32 32 32 33 33 30 32 33 33 34 35 35 35 36 38 39 40 41 42 42 42 42 42 42 43 43 43 43 43 42 41 40 39 38 38
31 30 30 30 30 31 31 31 32 32 33 33 32 33 31 31 32 33 33 34 34 34 35 37 38 39 40 41 42 42 42 43 42 42 42 43 42 42 42 41 41 40 39 38
31 31 30 30 30 30 30 31 32 32 33 33 31 33 31 31 31 32 32 32 33 33 34 35 37 38 39 39 41 41 41 42 42 42 42 42 42 42 42 42 42 41 40 39
31 31 31 30 30 30 30 30 31 32 32 32 31 32 31 30 30 30 31 31 32 32 33 34 35 36 36 38 39 40 40 40 40 40 40 41 41 41 41 41 41 41 41 39
31 31 30 30 30 30 30 30 31 32 32 32 31 31 30 29 29 29 30 30 31 32 32 33 34 35 35 36 37 39 40 39 39 39 40 41 41 42 42 41 41 41 41 40
30 31 30 30 29 30 30 30 31 32 33 32 31 30 29 28 28 29 29 30 31 31 32 32 33 34 35 35 36 37 39 39 39 39 39 40 41 41 42 42 42 43 43 42
29 30 30 30 30 29 30 30 30 31 32 32 32 30 28 28 29 29 29 30 30 31 31 31 32 33 34 35 36 37 38 39 40 39 39 40 40 40 40 41 41 43 42 42
28 29 29 29 29 29 29 30 31 32 32 33 32 30 28 28 29 30 30 30 30 31 31 31 31 33 34 35 36 37 38 39 39 40 40 40 41 41 41 42 42 42 43 42
28 29 29 29 29 29 29 30 31 32 33 34 34 32 30 29 28 29 29 29 30 31 31 31 32 32 33 34 35 36 37 39 39 40 41 42 42 42 42 42 43 42 42 41
28 29 30 30 29 30 30 31 31 32 33 34 34 32 30 30 29 29 29 29 29 30 30 31 31 31 32 33 34 35 36 38 39 39 40 41 42 42 43 43 44 43 42 41
29 29 29 30 30 30 30 30 30 31 32 33 32 30 29 30 30 30 29 29 29 30 30 30 30 30 32 33 34 34 35 36 38 38 39 40 40 42 43 44 43 43 42 41
29 29 29 30 30 30 30 28 28 30 32 33 32 31 29 30 30 30 30 30 31 31 30 29 30 30 31 33 33 33 34 35 37 37 37 38 40 41 42 43 43 43 43 42
30 31 30 30 30 30 30 28 28 29 30 31 32 31 31 31 31 31 31 32 32 31 31 30 30 29 30 31 31 31 32 34 36 37 37 38 40 41 41 41 41 42 42 41
30 30 30 30 30 30 29 27 29 29 29 29 30 30 31 32 32 33 32 32 32 31 30 30 30 29 29 30 30 30 31 32 34 35 36 37 39 40 41 41 42 42 42 43
28 29 30 31 30 31 29 29 29 29 28 29 29 29 30 30 32 33 33 32 31 31 30 30 30 30 29 29 30 30 30 30 31 32 34 34 36 38 39 41 42 42 43 43
28 29 30 31 32 31 29 29 30 30 28 28 28 28 29 30 32 33 33 33 32 31 31 30 30 30 29 29 29 29 29 29 30 31 32 34 35 36 37 38 39 40 41 42
29 30 30 31 32 32 30 30 30 30 29 27 28 29 29 30 32 32 32 33 33 33 32 32 31 30 29 29 29 30 30 30 31 32 33 34 35 36 37 38 38 38 39 40
30 30 30 31 32 32 30 30 30 30 29 28 28 29 30 31 31 31 31 31 32 32 32 32 32 31 30 30 30 30 31 31 31 32 34 34 34 35 36 37 37 37 37 38
30 31 31 32 33 32 30 31 31 30 30 30 30 30 31 31 31 31 31 31 31 32 32 32 32 32 32 31 31 31 31 31 31 32 33 33 34 34 34 35 35 36 36 36
30 31 31 32 32 31 32 32 31 31 31 31 31 31 32 32 32 32 31 31 31 32 32 32 32 32 32 32 32 31 31 32 32 31 31 32 33 33 33 34 34 35 35 36
30 31 31 32 31 31 31 31 31 32 32 32 33 33 33 33 33 33 33 32 32 32 32 32 32 31 31 32 32 31 32 32 32 31 30 30 31 33 33 34 34 34 35 35
30 32 32 32 30 30 30 31 32 32 32 32 33 33 33 33 33 33 33 33 33 33 33 33 32 31 31 31 31 30 30 30 31 31 31 30 30 31 32 32 32 33 33 34
30 31 32 31 30 31 30 31 32 32 32 33 33 33 33 32 32 32 33 33 33 32 31 31 31 31 31 31 30 29 29 29 29 29 30 30 30 30 31 31 31 31 31 31
Wind_Direction
272 271 272 274 274 274 274 274 273 271 269 268 267 267 265 265 265 265 263 263 263 260 258 256 254 253 252 252 253 253 252 252 250 250 252 252 252 251 252 253 254 255 256 257
270 270 272 273 274 274 274 274 273 272 271 270 269 268 266 266 267 266 266 265 264 263 259 257 255 254 251 252 253 252 252 251 250 250 251 252 252 251 252 253 253 254 255 256
271 272 272 272 272 273 274 274 274 273 271 270 270 268 268 268 269 269 268 267 266 265 261 258 256 255 253 252 252 252 253 252 251 251 250 250 251 251 251 251 251 252 253 254
270 270 271 271 271 272 273 273 273 273 273 271 270 270 268 270 271 270 270 268 267 267 264 260 258 257 255 253 253 253 253 252 252 251 250 250 250 250 250 250 251 251 252 253
270 270 271 271 272 272 273 273 273 273 273 272 271 273 271 272 273 273 272 271 270 268 267 263 260 259 256 254 252 253 253 252 253 252 250 250 250 250 249 249 250 251 252 252
268 269 270 270 271 271 272 273 273 273 272 272 272 274 274 274 276 274 273 272 272 270 268 264 261 260 257 255 253 253 252 252 253 252 250 249 250 250 250 249 249 250 251 251
266 267 268 269 269 269 270 272 274 273 272 274 275 274 276 276 277 275 273 273 273 273 271 267 262 260 258 256 254 253 251 252 252 251 250 249 249 250 250 250 249 250 251 251
268 268 268 269 270 271 271 272 272 273 274 276 276 276 276 276 277 277 275 275 274 274 273 269 264 261 259 259 256 254 252 251 251 251 251 249 249 250 250 249 250 251 252 253
271 270 269 269 271 271 271 269 269 271 274 276 277 278 276 275 275 276 276 276 275 275 275 272 265 261 260 260 258 257 253 251 251 252 251 249 249 250 249 248 250 251 252 253
270 271 269 269 270 269 269 269 269 270 273 276 277 278 278 277 275 276 276 275 276 277 276 273 266 261 261 260 258 256 254 252 252 252 252 250 248 248 247 247 249 250 252 254
270 271 271 269 268 269 268 268 268 270 272 274 277 277 278 279 277 275 275 275 275 277 276 273 268 264 262 260 258 258 256 254 254 253 252 251 249 247 247 247 249 250 251 253
270 272 272 270 270 270 269 268 268 270 271 273 275 277 278 280 278 277 276 276 276 277 276 274 272 267 264 262 261 260 258 255 254 254 254 252 250 249 249 249 248 251 253 256
270 273 273 271 271 270 269 269 269 271 272 272 275 278 279 279 277 277 278 278 278 279 278 275 273 270 265 263 263 262 259 256 255 255 254 253 252 250 250 250 250 251 254 256
268 272 273 274 274 273 272 271 271 271 273 274 276 278 277 277 276 277 278 279 280 281 280 276 275 273 268 264 264 264 262 259 257 257 256 254 252 252 251 251 252 254 256 257
267 270 273 273 273 271 270 271 272 273 274 274 275 276 276 275 275 277 278 279 280 281 279 276 276 275 271 267 265 264 263 261 259 258 258 255 252 252 252 253 254 255 257 259
268 270 272 272 272 272 270 271 272 274 276 276 275 274 274 274 275 277 279 280 281 280 278 277 277 275 273 269 265 264 262 261 260 260 259 256 254 253 253 254 256 257 258 259
271 272 273 274 273 273 271 272 273 275 278 279 278 277 275 274 275 276 278 279 281 280 277 276 276 277 275 271 267 265 264 262 261 261 260 258 256 255 255 255 257 258 260 261
272 272 272 274 273 273 274 274 274 275 276 277 278 277 277 277 277 276 277 278 279 278 275 275 277 278 276 273 268 267 266 264 262 261 259 259 258 257 256 257 258 259 261 261
270 271 271 272 273 274 274 275 275 275 275 276 277 278 278 278 278 277 277 277 277 276 275 275 276 278 276 273 269 268 265 262 262 261 260 260 258 257 257 257 258 259 260 261
269 270 270 271 273 274 275 276 275 275 274 275 276 277 277 278 278 278 276 276 275 274 273 274 275 277 277 274 270 268 266 262 261 260 260 260 259 258 258 258 259 260 262 263
268 268 269 271 272 274 276 275 275 274 275 276 277 279 279 279 280 279 277 277 276 274 273 273 274 276 276 275 272 269 266 264 263 260 259 259 258 258 259 259 260 262 263 264
269 268 269 271 272 274 275 274 274 274 274 276 277 279 280 281 281 281 279 278 277 275 273 272 273 274 275 275 272 268 266 265 264 262 259 257 256 257 259 260 261 262 263 264
270 270 272 272 274 274 273 272 272 272 273 275 277 279 280 281 281 280 279 279 278 276 273 273 273 273 274 273 272 269 266 265 265 263 261 258 258 258 260 260 261 263 263 264
271 271 272 274 274 274 273 272 272 272 274 276 278 279 281 281 281 280 279 278 278 276 275 273 273 273 273 272 272 271 267 265 264 262 262 260 259 259 260 260 262 262 263 264
272 272 273 274 274 272 272 273 274 273 275 277 279 280 281 281 280 280 279 279 278 277 276 275 273 272 271 270 270 271 269 267 265 262 261 261 260 261 261 262 262 263 264 264
270 271 273 274 274 273 274 275 276 275 276 278 279 280 279 279 280 280 279 279 278 278 277 275 273 273 272 271 271 271 270 269 266 262 260 260 260 262 262 263 264 265 266 265
Height
5689 5690 5690 5690 5689 5688 5688 5687 5688 5688 5687 5687 5687 5689 5690 5689 5689 5690 5690 5691 5692 5693 5694 5695 5697 5699 5701 5703 5705 5707 5709 5711 5713 5716 5719 5721 5725 5727 5730 5732 5733 5734 5736 5737
5682 5682 5683 5682 5681 5680 5680 5680 5680 5680 5679 5678 5679 5681 5682 5681 5681 5681 5681 5681 5682 5683 5684 5685 5686 5688 5690 5692 5694 5696 5698 5701 5703 5706 5708 5712 5714 5717 5720 5722 5723 5725 5726 5728
5674 5675 5674 5674 5674 5673 5673 5672 5672 5671 5671 5671 5671 5673 5674 5673 5672 5672 5671 5672 5672 5673 5674 5675 5676 5677 5679 5681 5683 5686 5688 5690 5692 5695 5698 5701 5703 5706 5709 5711 5713 5715 5717 5719
5665 5666 5666 5666 5666 5665 5665 5665 5664 5663 5663 5663 5664 5664 5667 5665 5664 5663 5663 5663 5663 5663 5663 5664 5665 5667 5668 5670 5672 5674 5677 5679 5681 5684 5687 5690 5693 5696 5699 5702 5704 5706 5708 5710
5658 5658 5659 5659 5659 5658 5658 5657 5656 5655 5654 5655 5656 5655 5659 5657 5656 5656 5655 5654 5654 5654 5654 5654 5655 5656 5657 5658 5661 5663 5666 5668 5671 5673 5676 5679 5683 5686 5689 5692 5694 5697 5699 5701
5650 5651 5651 5651 5651 5650 5650 5650 5648 5647 5647 5648 5649 5647 5649 5649 5648 5648 5647 5646 5645 5645 5645 5644 5645 5645 5646 5648 5650 5653 5655 5658 5660 5663 5665 5669 5673 5676 5679 5682 5684 5687 5689 5692
5643 5643 5643 5643 5643 5643 5643 5643 5641 5640 5639 5640 5641 5640 5642 5641 5640 5639 5638 5638 5637 5636 5636 5635 5635 5636 5637 5639 5641 5643 5646 5648 5651 5653 5656 5659 5662 5666 5669 5672 5675 5677 5680 5682
5634 5636 5636 5635 5635 5635 5635 5635 5635 5633 5632 5633 5633 5632 5635 5634 5632 5631 5630 5629 5629 5628 5627 5627 5626 5627 5628 5630 5631 5633 5636 5639 5641 5644 5647 5649 5652 5655 5659 5662 5665 5667 5670 5672
5626 5627 5628 5628 5628 5628 5627 5627 5627 5626 5624 5625 5625 5626 5627 5626 5625 5624 5623 5622 5621 5620 5619 5619 5618 5619 5620 5621 5623 5624 5627 5630 5632 5635 5637 5640 5643 5645 5649 5652 5654 5657 5660 5662
5618 5619 5620 5620 5620 5620 5620 5620 5619 5618 5617 5616 5617 5618 5619 5618 5617 5617 5616 5615 5613 5613 5612 5611 5611 5612 5612 5613 5614 5615 5617 5620 5623 5625 5627 5630 5633 5636 5639 5641 5644 5647 5650 5652
5611 5611 5612 5612 5612 5612 5613 5613 5612 5611 5610 5610 5609 5613 5612 5611 5609 5609 5608 5607 5606 5605 5604 5603 5604 5604 5604 5604 5605 5606 5608 5610 5613 5615 5618 5620 5623 5626 5629 5631 5634 5637 5639 5642
5604 5604 5604 5604 5605 5604 5605 5605 5605 5605 5604 5603 5602 5607 5604 5603 5601 5601 5600 5599 5598 5598 5596 5596 5595 5595 5596 5596 5597 5598 5599 5601 5603 5605 5608 5610 5613 5616 5619 5621 5624 5626 5629 5631
5596 5596 5596 5596 5598 5597 5597 5597 5597 5597 5596 5595 5595 5599 5597 5595 5594 5593 5592 5591 5591 5590 5589 5588 5588 5587 5587 5588 5589 5589 5590 5592 5594 5596 5598 5600 5603 5606 5609 5611 5614 5616 5618 5621
5588 5589 5590 5590 5589 5589 5589 5590 5590 5589 5588 5588 5589 5590 5590 5587 5586 5585 5584 5584 5583 5582 5581 5580 5580 5579 5579 5580 5580 5581 5582 5583 5585 5587 5589 5591 5594 5596 5599 5601 5604 5606 5608 5610
5580 5581 5581 5582 5582 5582 5582 5582 5582 5581 5581 5581 5582 5581 5581 5580 5579 5578 5577 5576 5576 5575 5574 5573 5572 5572 5571 5572 5572 5573 5573 5574 5576 5578 5580 5582 5584 5587 5589 5592 5594 5596 5598 5599
5573 5573 5574 5574 5574 5574 5574 5575 5575 5574 5574 5573 5573 5573 5573 5572 5571 5570 5570 5569 5568 5567 5567 5566 5565 5564 5564 5564 5564 5565 5565 5566 5567 5569 5571 5573 5575 5577 5579 5582 5584 5586 5588 5589
5565 5566 5566 5566 5566 5565 5567 5569 5568 5567 5567 5567 5565 5567 5564 5564 5563 5563 5562 5561 5560 5560 5559 5558 5558 5557 5556 5556 5556 5557 5557 5558 5559 5560 5562 5563 5565 5567 5569 5571 5574 5576 5577 5578
5557 5557 5557 5557 5558 5558 5563 5561 5560 5560 5560 5559 5558 5557 5556 5555 5555 5554 5553 5553 5552 5552 5551 5550 5550 5549 5548 5548 5548 5548 5549 5550 5550 5551 5553 5554 5556 5557 5559 5561 5563 5565 5566 5567
5550 5550 5549 5549 5548 5549 5554 5553 5552 5552 5552 5552 5550 5549 5548 5547 5546 5546 5545 5544 5544 5543 5543 5543 5542 5542 5541 5540 5540 5540 5541 5541 5542 5543 5544 5545 5546 5547 5549 5550 5552 5554 5555 5556
5542 5541 5542 5541 5540 5541 5546 5545 5543 5544 5544 5544 5542 5541 5540 5539 5539 5539 5537 5536 5535 5534 5534 5534 5534 5533 5533 5532 5532 5532 5532 5532 5533 5534 5535 5535 5536 5538 5539 5540 5541 5543 5544 5545
5534 5534 5533 5533 5532 5534 5537 5536 5535 5536 5537 5536 5534 5533 5532 5531 5530 5530 5528 5527 5526 5526 5525 5525 5525 5525 5524 5524 5523 5523 5523 5523 5524 5524 5525 5526 5527 5528 5529 5530 5531 5532 5533 5534
5526 5526 5526 5525 5525 5529 5529 5527 5527 5527 5527 5526 5525 5524 5523 5522 5521 5520 5519 5519 5518 5517 5517 5516 5516 5516 5516 5515 5514 5514 5514 5514 5514 5515 5515 5516 5517 5518 5519 5520 5521 5522 5523 5523
5518 5519 5518 5518 5520 5520 5519 5518 5518 5518 5518 5517 5516 5516 5514 5513 5513 5512 5511 5510 5509 5508 5508 5507 5507 5507 5507 5506 5505 5505 5505 5505 5505 5505 5506 5506 5507 5508 5509 5510 5511 5512 5513 5513
5510 5510 5509 5509 5511 5511 5510 5509 5509 5509 5508 5508 5507 5507 5505 5504 5503 5503 5502 5501 5500 5499 5498 5498 5497 5497 5497 5496 5496 5495 5495 5495 5496 5496 5497 5497 5498 5499 5500 5500 5501 5502 5503 5503
5502 5501 5500 5501 5502 5501 5501 5501 5500 5499 5499 5499 5498 5497 5496 5495 5494 5493 5492 5491 5490 5489 5489 5488 5488 5487 5487 5487 5486 5486 5486 5486 5486 5487 5487 5488 5488 5489 5490 5491 5491 5492 5492 5492
5493 5493 5492 5493 5494 5493 5493 5492 5491 5490 5490 5490 5489 5488 5487 5485 5485 5484 5483 5482 5480 5479 5479 5478 5478 5477 5477 5477 5477 5476 5476 5476 5477 5477 5478 5479 5479 5480 5481 5481 5482 5482 5483 5483